Powrót do katalogu

DELTA 1 DEB

AktywnyLEO
NORAD 7129·DEBRIS·🇺🇸 United States

Wystrzelony Nov 6, 1973 z Vandenberg Space Force Base

Loading…

Następne Przeloty (najbliższe 24 godziny)

TLE

ŚwieżeSource: Space-Track

Epoka: Sep 14, 2026, 08:12 UTC

1 07129U 73086CT  26257.34198427 -.00000209  00000-0 -18121-2 0  9991
2 07129 102.0162 107.1311 0243935 183.1163 352.7173 12.04471649318082

Śledź DELTA 1 DEB w czasie rzeczywistym z AllMySat

Download on the App Store